Location: Newark
(41.8083°N, 72.2500°W)
Time: 11:50:57
(UTC+00:00)

Explorer 11/Cluster Stage 4 - Pass Details

Date: 12 December 2021
Orbit: 467 x 1255 km, 28.8° (Epoch: 24 January)

Event Time Altitude Azimuth Distance (km) Brightness Sun altitude
Rises 03:22:32 0° 216° (SW) 2,598 - -64.9°
Reaches altitude 10° 03:26:13 10° 179° (S) 1,842 - -65.4°
Maximum altitude 03:27:26 11° 162° (SSE) 1,822 - -65.6°
Drops below altitude 10° 03:28:43 10° 145° (SE) 1,947 - -65.7°
Sets 03:33:03 0° 111° (ESE) 3,070 - -66.3°
